This demonstration page uses our WeatherBlox Daily Observations layout. Learn more.

Left ArrowRight Arrow

41.12389, -100.76542

Hourly Observations for September 2, 2017

Temp ( °F °C ) Dew Point ( °F °C ) Humidity (%) Winds ( mph kmh ) Pressure ( in mb ) Visibility ( mi km ) Precip ( " mm )
12:53 am 00:53 Clear 66 18.9 62 16.7 87 87 S 3 6 29.98 1015 10 16 0.00 0.00
1:53 am 01:53 Clear 63 17.2 60 15.6 90 90 ESE 3 6 29.98 1015 10 16 0.00 0.00
2:53 am 02:53 Clear 61 16.1 59 15 93 93 Calm 29.99 1016 10 16 0.00 0.00
3:27 am 03:27 Clear with Mist and Fog 59 15 59 15 100 100 Calm 30.00 1016 2 3 0.00 0.00
3:37 am 03:37 Clear 58 14.4 57 13.9 97 97 Calm 30.00 1016 10 16 0.00 0.00
3:53 am 03:53 Clear 58 14.4 56 13.3 93 93 SSW 3 6 29.99 1016 9 14 0.00 0.00
4:53 am 04:53 Clear 62 16.7 60 15.6 93 93 SW 5 7 29.98 1015 8 13 0.00 0.00
5:53 am 05:53 Clear with Mist and Fog 57 13.9 56 13.3 96 96 N 8 13 30.01 1016 3 5 0.00 0.00
6:48 am 06:48 Clear with Mist and Fog 55 13 55 13 100 100 Calm 30.06 1018 2 3 0.00 0.00
6:53 am 06:53 Clear with Mist and Fog 55 12.8 54 12.2 96 96 NW 6 9 30.03 1017 2 2 0.00 0.00
6:58 am 06:58 Clear with Mist and Fog 56 13.3 54 12.2 93 93 NW 3 6 30.06 1018 3 5 0.00 0.00
7:53 am 07:53 Sunny with Mist and Fog 56 13.3 55 12.8 97 97 WNW 3 6 30.05 1018 5 8 0.00 0.00
8:53 am 08:53 Sunny with Mist and Fog 63 17.2 61 16.1 93 93 NW 3 6 30.06 1018 5 8 0.00 0.00
9:53 am 09:53 Sunny 69 20.6 63 17.2 81 81 Calm 30.07 1018 8 13 0.00 0.00
10:53 am 10:53 Sunny 79 26.1 65 18.3 62 62 NNE 7 11 30.07 1018 10 16 0.00 0.00
11:53 am 11:53 Sunny 83 28.3 65 18.3 55 55 VRB 7 11 30.07 1018 10 16 0.00 0.00
12:53 pm 12:53 Sunny 86 30 62 16.7 45 45 NNE 8 13 30.06 1018 10 16 0.00 0.00
1:53 pm 13:53 Sunny 87 30.6 57 13.9 36 36 N 9 15 30.05 1018 10 16 0.00 0.00
2:53 pm 14:53 Sunny 88 31.1 57 13.9 35 35 NNE 7 11 30.04 1017 10 16 0.00 0.00
3:53 pm 15:53 Sunny 89 31.7 54 12.2 30 30 VRB 3 6 30.03 1017 10 16 0.00 0.00
4:53 pm 16:53 Sunny 89 31.7 55 12.8 31 31 Calm 30.02 1017 10 16 0.00 0.00
5:53 pm 17:53 Sunny 88 31.1 54 12.2 31 31 NE 7 11 30.03 1017 10 16 0.00 0.00
6:53 pm 18:53 Sunny 82 27.8 61 16.1 49 49 SE 7 11 30.04 1017 9 14 0.00 0.00
7:53 pm 19:53 Sunny 72 22.2 62 16.7 71 71 ESE 6 9 30.05 1018 9 14 0.00 0.00
8:53 pm 20:53 Clear 67 19.4 61 16.1 81 81 ESE 5 7 30.06 1018 9 14 0.00 0.00
9:53 pm 21:53 Clear 65 18.3 59 15 81 81 ESE 7 11 30.06 1018 9 14 0.00 0.00
10:53 pm 22:53 Clear 63 17.2 58 14.4 84 84 E 5 7 30.05 1018 8 13 0.00 0.00
11:53 pm 23:53 Clear 61 16.1 58 14.4 90 90 ESE 8 13 30.05 1018 8 13 0.00 0.00

Powered by AerisWeather